Regional Weather Roundup
Issued by NWS

Home | Current Version | Previous Version | Graphics & Text | Print | Product List | Glossary On
Versions: 1 2 3 4 5 6 7 8 9 10 11 12 13 14 15 16 17 18 19 20 21 22 23 24 25 26 27 28 29 30 31 32 33 34 35 36 37 38 39 40 41 42 43 44 45 46 47 48 49 50
000
ASUS43 KMPX 252310
RWRMN
WEATHER ROUNDUP FOR MINNESOTA
NATIONAL WEATHER SERVICE TWIN CITIES/CHANHASSEN MN
600 PM CDT MON MAY 25 2015


NOTE: "FAIR" INDICATES FEW OR NO CLOUDS BELOW 12,000 FEET WITH NO
SIGNIFICANT WEATHER AND/OR OBSTRUCTIONS TO VISIBILITY. N/A MEANS
CURRENT SKY AND/OR WEATHER CONDITIONS ARE NOT AVAILABLE.

MNZ060>063-068>070-260000-
   Twin Cities Metro

CITY           SKY/WX    TMP DP  RH WIND       PRES   REMARKS
TWIN CITIES    PTSUNNY   72  58  61 SW15G22   29.73S
ST PAUL        PTSUNNY   72  59  63 W14       29.73S
CRYSTAL        MOSUNNY   71  57  61 SW10G20   29.71F
BLAINE         CLOUDY    72  61  68 SW9       29.72F
LAKEVILLE      PTSUNNY   72  61  68 W9        29.73S
EDEN PRAIRIE   PTSUNNY   72  58  61 SW15      29.72S
SOUTH ST PAUL  PTSUNNY   71  58  62 SW8G17    29.73R
LAKE ELMO      CLOUDY    70  59  68 SW14      29.74S
$$
MNZ001>005-007-008-013>017-022>024-027-028-260000-
   Northwest Minnesota

CITY           SKY/WX    TMP DP  RH WIND       PRES   REMARKS
BEMIDJI        RAIN      57  54  88 NE5       29.80S
HALLOCK        PTSUNNY   79  39  24 N6        29.74R
ROSEAU         CLOUDY    73  54  49 S14       29.75S
WARROAD        CLOUDY    72  48  43 CALM      29.76S
THIEF RVR FALL CLOUDY    68  46  45 S5        29.80R
CROOKSTON      CLOUDY    70  52  52 SE9       29.80R
FOSSTON        DRIZZLE   61  54  77 CALM      29.80S
DETROIT LAKES  DRIZZLE   59  54  82 NE10G16   29.81R
MOORHEAD       DRIZZLE   63  55  77 NE7       29.81R
PARK RAPIDS    LGT RAIN  58  53  84 NE9G18    29.78R
MAHNOMEN       DRIZZLE   59  55  85 E16       29.80S
$$
MNZ006-009>011-018-025>026-260000-
   North Central Minnesota

CITY           SKY/WX    TMP DP  RH WIND       PRES   REMARKS
BAUDETTE       CLOUDY    67  52  58 S10       29.76S
FLAG ISLAND    CLOUDY    63  54  72 SE5       29.74R
INTL FALLS     LGT RAIN  59  54  83 SE6       29.79S
WASKISH        CLOUDY    63  54  72 CALM      29.79S
BIG FORK       LGT RAIN  57  55  94 N6        29.79S
LONGVILLE      RAIN      55  54  94 NE8G18    29.75R
GRAND RAPIDS   CLOUDY    55  52  88 N6        29.75S
CRANE LAKE     RAIN      55  54  94 CALM      29.80S
COOK           RAIN      57  55  94 NE3       29.77F
WALKER         LGT RAIN  56  55  94 NE6       29.79R
$$
MNZ012-019>021-037-260000-
   Northeast Minnesota

CITY           SKY/WX    TMP DP  RH WIND       PRES   REMARKS
DULUTH         LGT RAIN  49  47  93 E7        29.73S VSB 1/4
ELY            LGT RAIN  55  52  88 NE8       29.76R
HIBBING        LGT RAIN  56  52  86 NE8       29.74S
EVELETH        LGT RAIN  57  54  88 NE8G16    29.75S
DULUTH HARBOR  CLOUDY    45  45 100 NE9       29.76R
TWO HARBORS    DRIZZLE   54  48  82 E7        29.72R
GRAND MARAIS     N/A     47  46  97 NE7       29.70S
G MARAIS ARPRT DRIZZLE   54  50  87 N14G20    29.73F
$$
MNZ029>031-032-039>041-046>048-054>057-064-260000-
   West Central Minnesota

CITY           SKY/WX    TMP DP  RH WIND       PRES   REMARKS
FERGUS FALLS   PTSUNNY   63  52  67 NE15G28   29.77R
WHEATON        CLOUDY    59  52  77 N12G18    29.80R
MORRIS         CLOUDY    63  55  77 N13       29.74R
ALEXANDRIA     CLOUDY    59  55  87 N14       29.74R
ELBOW LAKE     CLOUDY    60  53  76 NE20G29   29.75R
WADENA         DRIZZLE   55  54  94 NE24G35   29.73F
GLENWOOD       CLOUDY    63  57  82 NW10      29.73R
APPLETON       CLOUDY    64  57  77 NW10      29.75R
BENSON         CLOUDY    64  55  72 NW8       29.73S
ORTONVILLE     PTSUNNY   63  55  77 N17       29.76S
MADISON        PTSUNNY   64  55  72 W14       29.76R
WILLMAR        FAIR      66  57  72 W17       29.74R
$$
MNZ033>034-036-042>043-049>051-058-059-260000-
   Central Minnesota

CITY           SKY/WX    TMP DP  RH WIND       PRES   REMARKS
ST CLOUD       PTSUNNY   68  57  68 SW14G23   29.70S
SAUK CENTRE    MOCLDY    65  57  74 W15       29.70S
PAYNESVILLE    CLOUDY    64  57  79 S15       29.72S
AITKIN         DRIZZLE   57  52  82 CALM      29.69S
PINE RIVER     RAIN      55  55 100 N17       29.77R
BRAINERD       CLOUDY    61  57  88 N6        29.70S FOG
STAPLES        DRIZZLE   55  54  94 N10G18    29.73R
LONG PRAIRIE   CLOUDY    63  55  77 W7        29.70S
LITTLE FALLS   PTSUNNY   63  59  88 SW5       29.70S
LITCHFIELD     PTSUNNY   68  61  77 SW9G18    29.73S
BUFFALO        MOSUNNY   69  56  63 SW9G22    29.72F
MAPLE LAKE     PTSUNNY   69  60  74 SW6       29.73R
$$
MNZ037-044-045-052-053-260000-
   East Central Minnesota

CITY           SKY/WX    TMP DP  RH WIND       PRES   REMARKS
PRINCETON      CLOUDY    68  57  68 SW7       29.71S
MORA           PTSUNNY   64  55  72 SW8       29.72S
CAMBRIDGE      PTSUNNY   70  57  64 SW7       29.69F
RUSH CITY      CLOUDY    66  58  74 SW7       29.71S
MOOSE LAKE     CLOUDY    54  54 100 NE3       29.70S
HINCKLEY       CLOUDY    64  59  82 S6        29.71S
CLOQUET        CLOUDY    52  48  87 E3        29.73R FOG
MCGREGOR       CLOUDY    55  54  94 E5        29.72R
$$
MNZ071>073-080-081-089-090-097-098-260000-
   Southwest Minnesota

CITY           SKY/WX    TMP DP  RH WIND       PRES   REMARKS
MONTEVIDEO     MOSUNNY   66  57  72 NW10      29.75R
GRANITE FALLS  MOSUNNY   67  58  74 W16G23    29.76S
CANBY          MOSUNNY   65  57  74 NW13G18   29.78R
MARSHALL       MOSUNNY   70  54  56 W17       29.75S
REDWOOD FALLS  MOSUNNY   71  58  63 W14G24    29.74R
OLIVIA         PTSUNNY   68  59  73 W22       29.74R
PIPESTONE      MOSUNNY   66  57  72 NW9G16    29.78S
WINDOM         MOSUNNY   73  55  53 W16G23    29.75S
WORTHINGTON    PTSUNNY   70  59  68 W9        29.76S
JACKSON        SUNNY     75  59  57 SW14G23   29.76S
TRACY          MOSUNNY   70  59  68 W10G21    29.76S
SLAYTON        PTSUNNY   67  59  74 W13       29.78R
$$
MNZ065>067-074>077-082>085-091>093-260000-
   South Central Minnesota

CITY           SKY/WX    TMP DP  RH WIND       PRES   REMARKS
MANKATO        PTSUNNY   73  57  56 SW14G23   29.73S
NEW ULM        SUNNY     72  61  68 W14       29.73S
ST JAMES       MOSUNNY   75  61  60 SW14      29.75S
FAIRMONT       MOSUNNY   77  54  44 SW17      29.74S
GLENCOE        MOSUNNY   71  62  72 SW7       29.73R
FARIBAULT      LGT RAIN  72  61  68 S10G17    29.75S
OWATONNA       MOSUNNY   70  63  78 S9        29.76F
WASECA         MOSUNNY   73  61  64 SW15      29.76F
ALBERT LEA     MOSUNNY   73  57  56 SW13G24   29.76S
$$
MNZ078>079-086>088-094>096-260000-
   Southeast Minnesota

CITY           SKY/WX    TMP DP  RH WIND       PRES   REMARKS
ROCHESTER      MOSUNNY   72  62  71 SW15      29.79S
RED WING       CLOUDY    75  61  60 W6        29.73F
STANTON        PTSUNNY   74  60  61 S12G17    29.73S
DODGE CENTER   PTSUNNY   66  61  82 W9        29.78S
WINONA         PTSUNNY   73  61  64 SW9G18    29.77S
AUSTIN         MOSUNNY   73  61  64 SW9G17    29.77F
PRESTON        MOSUNNY   72  62  72 SW6       29.79F
$$
ABBREVIATIONS USED IN REMARKS
   TC - TEMPERATURES IN CELSIUS
  WCI - WIND CHILL INDEX
   HX - HEAT INDEX
  VSB - VISIBILITY
$$


USA.gov is the U.S. government's official web portal to all federal, state and local government web resources and services.